Historyczne dane pomiarowe

Dodano dane terminowe – wersja testowa.

Dane z okresu 1951-2019

Wersja bazy: 1.34 [2019-03-16, lista zmian], aktualizacja planowana na 2019-04-15

Dane meteo z obszaru Polski uzyskane na podstawie danych udostępnionych przez Instytut Meteorologii i Gospodarki Wodnej – Państwowy Instytut Badawczy.

 

Wybierz Datę:    

       

TemperaturaWilgotnośćWiatrCiśnienieOpadyŚniegCzas trwania zjawisk
 Stacja t tx tn tng RH VA  wxwx mslp ppp RRR   cm mm wxwxwxwxwxwxwx
2020-01-31 4.4 7.7 0.6 0.0 88.6 7.5- 7.1--1003.2 976.1 11.3 9.9 0.0- 0.0--------
2020-01-30 1.8 3.7 0.5 0.0 88.0 6.1- 6.8--1009.1 981.6 2.7 1.0 1.7- 0.0--------
2020-01-29 1.7 4.6 0.6 -0.1 87.5 6.0- 6.8--1002.0 974.7 3.4 1.0 2.4- 0.0--------
2020-01-28 1.4 5.9 -2.6 -5.4 84.5 5.7- 4.1--1006.1 978.6 4.4 0.0 4.4- 0.0--------
2020-01-27 0.4 5.7 -4.1 -6.4 80.1 5.0- 2.8--1016.7 988.9 0.0 0.0 0.0- 0.0--------
2020-01-26 0.0 4.4 -2.0 -3.8 80.9 4.9- 2.3--1022.0 994.0 0.0 0.0 0.0- 0.0--------
2020-01-25 -0.7 2.4 -2.8 -3.2 81.8 4.7- 5.9--1021.6 993.5 0.0 0.0 0.0- 0.0--------
2020-01-24 0.0 4.1 -3.2 -5.6 74.5 4.5- 5.0--1024.1 996.0 0.0 0.0 0.0- 0.0--------
2020-01-23 0.5 2.3 -0.8 -1.5 81.1 5.1- 5.9--1030.71002.5 0.0 0.0 0.0- 0.0--------
2020-01-22 0.7 2.9 -0.4 -1.0 80.9 5.2- 8.9--1024.7 996.7 0.0 0.0 0.0- 0.0--------
2020-01-21 1.7 4.8 -0.4 -0.7 72.8 5.0- 8.0--1037.11008.8 0.0 0.0 0.0- 0.0--------
2020-01-20 0.4 1.4 -1.1 -0.8 92.0 5.8- 2.5--1043.21014.6 0.0 0.0 0.0- 0.0--------
2020-01-19 -1.9 -1.1 -3.0 -4.0 96.5 5.2- 0.4--1031.61003.1 0.0 0.0 0.0- 0.0--------
2020-01-18 -0.6 2.6 -3.1 -4.9 91.6 5.4- 2.5--1026.0 997.8 0.0 0.0 0.0- 0.0--------
2020-01-17 -1.2 1.6 -7.2 -7.9 93.1 5.3- 3.1--1031.81003.4 0.0 0.0 0.0- 0.0--------
2020-01-16 2.3 5.9 0.3 -1.7 78.9 5.7- 4.8--1029.91001.9 0.0 0.0 0.0- 0.0--------
2020-01-15 4.1 8.3 -0.2 -1.5 68.4 5.6- 4.9--1024.8 997.1 0.0 0.0 0.0- 0.0--------
2020-01-14 2.0 5.8 -0.3 -2.2 76.9 5.4- 3.8--1023.4 995.6 0.0 0.0 0.0- 0.0--------
2020-01-13 2.3 5.0 0.4 0.0 78.6 5.7- 6.9--1023.3 995.4 0.0 0.0 0.0- 0.0--------
2020-01-12 2.9 5.7 2.0 1.6 81.9 6.2- 5.0--1026.8 998.9 0.0 0.0 0.0- 0.0--------
2020-01-11 4.4 6.2 3.4 2.9 89.6 7.5- 7.0--1024.4 996.7 0.6 0.6 0.0- 0.0--------
2020-01-10 3.0 4.9 1.0 0.6 79.4 6.0- 6.1--1018.4 990.7 0.4 0.0 0.4- 0.0--------
2020-01-09 0.9 1.2 -0.4 -0.8 93.9 6.1- 5.3--1023.9 995.8 0.8 0.3 0.5- 0.0--------
2020-01-08 0.2 1.8 -5.0 -6.6 81.4 5.1- 4.9--1028.51000.3 1.1 0.0 1.1- 0.0--------
2020-01-07 -0.7 2.6 -4.0 -6.2 71.9 4.1- 1.8--1028.1 999.8 0.0 0.0 0.0- 0.0--------
2020-01-06 -1.8 -0.1 -4.6 -6.5 85.9 4.6- 3.5--1031.51003.0 0.0 0.0 0.0- 0.0--------
2020-01-05 0.3 2.0 -1.0 -1.8 81.6 5.1- 6.4--1023.4 995.4 0.0 0.0 0.0- 0.0--------
2020-01-04 1.7 3.6 -0.9 -1.5 84.3 5.9- 7.1--1014.4 986.7 0.6 0.1 0.5- 0.0--------
2020-01-03 -0.1 3.9 -3.4 -6.8 65.8 4.0- 4.5--1023.1 995.0 0.0 0.0 0.0- 0.0--------
2020-01-02 0.8 3.2 -0.4 -1.1 71.6 4.6- 4.3--1027.8 999.7 0.0 0.0 0.0- 0.0--------
2020-01-01 1.5 4.5 -0.4 -1.4 80.1 5.4- 6.5--1029.11001.0 0.0 0.0 0.0- 0.0--------
2019-12-31 2.8 4.4 1.3 0.4 73.9 5.5- 9.5--1019.5 991.8 0.1 0.1 0.0 1 0.0--------
2019-12-30 -1.0 1.9 -3.5 -3.4 71.5 4.0- 5.5--1032.81004.4 0.0 0.0 0.0 2 0.0--------
2019-12-29 -2.5 -1.2 -2.8 -2.8 77.4 3.9- 4.5--1037.61008.9 0.0 0.0 0.0 2 0.0--------
2019-12-28 -0.7 0.9 -1.2 -1.3 85.5 5.0- 7.9--1028.71000.4 0.3 0.1 0.2 1 0.0--------
2019-12-27 1.8 3.0 0.8 0.6 86.4 6.0- 5.8--1019.8 992.0 0.5 0.1 0.4- 0.0--------
2019-12-26 3.0 4.0 2.5 2.0 89.1 6.8- 6.0--1016.3 988.7 0.1 0.1 0.0- 0.0--------
2019-12-25 3.4 4.4 2.8 2.6 91.5 7.1- 4.1--1010.5 983.1 0.0 0.0 0.0- 0.0--------
2019-12-24 4.7 5.7 4.0 3.8 93.8 8.0- 5.8--1005.4 978.3 15.2 12.7 2.5- 0.0--------
2019-12-23 3.1 5.1 -0.7 -1.3 97.3 7.4- 2.9-- 995.1 968.1 28.7 18.4 10.3- 0.0--------
2019-12-22 6.6 9.4 4.4 2.4 93.1 9.1- 3.3-- 991.6 965.1 0.1 0.1 0.0- 0.0--------
2019-12-21 7.4 12.8 2.1 0.9 81.9 8.5- 3.5-- 998.9 972.3 4.1 0.0 4.1- 0.0--------
2019-12-20 4.6 7.2 3.2 -0.1 89.1 7.6- 3.5--1012.6 985.3 0.0 0.0 0.0- 0.0--------
2019-12-19 4.4 9.4 -0.7 -1.9 93.3 7.9- 1.8--1025.7 998.0 0.0 0.0 0.0- 0.0--------
2019-12-18 10.2 14.0 8.2 6.5 74.0 9.1- 5.8--1018.0 991.0 0.0 0.0 0.0- 0.0--------
2019-12-17 7.8 13.9 0.0 -3.1 78.8 8.3- 4.0--1014.7 987.6 0.0 0.0 0.0- 0.0--------
2019-12-16 6.4 9.3 4.2 1.6 80.9 7.7- 3.8--1016.5 989.3 0.0 0.0 0.0- 0.0--------
2019-12-15 5.5 7.1 2.7 1.6 72.5 6.5- 6.4--1008.3 981.1 0.4 0.2 0.2- 0.0--------
2019-12-14 3.2 4.0 1.9 1.2 91.5 7.0- 4.3-- 998.9 971.8 0.3 0.2 0.1- 0.0--------
2019-12-13 2.0 2.6 1.0 1.2 89.4 6.3- 5.6-- 999.6 972.4 0.0 0.0 0.0- 0.0--------
2019-12-12 2.1 5.0 -0.8 -4.3 88.0 6.2- 3.0--1010.7 983.2 0.0 0.0 0.0- 0.0--------
2019-12-11 0.6 1.7 -0.4 -0.4 89.1 5.7- 3.5--1020.9 993.0 0.0 0.0 0.0- 0.0--------
2019-12-10 1.9 5.7 -1.8 -4.5 88.1 6.2- 3.6--1016.5 988.8 0.5 0.5 0.0- 0.0--------
2019-12-09 5.6 7.9 2.6 2.0 79.4 7.2- 5.9--1006.9 979.8 0.0 0.0 0.0- 0.0--------
2019-12-08 3.9 6.3 2.0 1.3 80.8 6.5- 6.5--1011.5 984.1 0.0 0.0 0.0- 0.0--------
2019-12-07 0.9 3.2 -2.0 -2.7 75.3 5.0- 7.9--1011.5 983.9 0.1 0.0 0.1- 0.0--------
2019-12-06 -1.0 3.4 -5.4 -8.7 72.9 4.1- 5.0--1018.4 990.4 0.0 0.0 0.0 1 0.0--------
2019-12-05 -0.8 3.0 -4.0 -5.7 70.0 4.0- 4.4--1025.6 997.4 0.0 0.0 0.0 2 0.0--------
2019-12-04 -1.7 0.4 -6.2 -8.5 80.6 4.4- 6.3--1027.5 999.2 0.0 0.0 0.0 2 0.0--------
2019-12-03 -1.1 0.9 -4.7 -6.6 89.1 5.1- 4.5--1023.6 995.4 0.0 0.0 0.0 2 0.0--------
131.7 ms

 

Źródłem pochodzenia danych jest Instytut Meteorologii i Gospodarki Wodnej – Państwowy Instytut Badawczy. Dane Instytutu Meteorologii i Gospodarki Wodnej – Państwowego Instytutu Badawczego zostały przetworzone.

Dane źródłowe można odnaleźć na stronie https://dane.imgw.pl